COSMOS 1275 DEB

Satellite information

Favourite Embed

Satellite Type and Status

DEBRISIN ORBIT

Key statistics

Satellite COSMOS 1275 DEB at a glance.

Uptime

16264

Days in orbit

Revolutions

≈ 14.1

Per day

Orbit

LEO

Low Earth Orbit

Inclination

83.1

Latest

Satellite identification and parameters

Extended collection of information and parameters for COSMOS 1275 DEB.

Object identification

Identified? True

Debris? True

Object name: COSMOS 1275 DEB

International designator: 1981-053JH

Object number (NORAD): 14441

Object ID (CCSDS): 14441

Country: COMMONWEALTH OF INDEPENDENT STATES (CIS)

Current information (Y/N): Y

RCS size: SMALL

Orbital parameters

Period: 102.006 minutes

Inclination: 83.1126 deg

SMA: 7231.753 km

Apoapsis: 886.775 km

Periapsis: 820.462 km

RAAN: 57.7341 deg

Eccentricy: 0.0045848

Argument of periapsis: 165.2937 deg

Mean anomaly: 194.9587 deg

Mean motion: 14.11683528 rev/day

Mean motion (dot): 0.00005014 rev/day2

B* drag term: 0.0027204222 1/REarth

Two-line elements (TLE)

Creation date: Dec. 12, 2025, 10:14 a.m.

Reference frame: TEME

Reference center: EARTH

Epoch: Dec. 12, 2025, 3:47 a.m. UTC

TLE line 0: 0 COSMOS 1275 DEB

TLE line 1: 1 14441U 81053JH 25346.15802090 .00005014 00000-0 27204-2 0 9993

TLE line 2: 2 14441 83.1126 57.7341 0045848 165.2937 194.9587 14.11683528246673

Live tracking on map

Real-time ground track for satellite COSMOS 1275 DEB.

In-orbit conjunctions

There are no conjunctions computed for COSMOS 1275 DEB, at the moment. Check back to stay up to date, as we update our databases every day.

Go to all conjunctions

Associated space launch

Navigation satellite providing location information for the Tsiklon-B navigation system

COSMOS 1275 DEB was lifted into orbit during the mission ‘Kosmos-3M | Parus 27’, on board a Kosmos-3M space rocket.

The launch took place on June 4, 1981, 3:41 p.m. from 132/2.

For more information about the launch, click the button.

Launch to space Kosmos-3M | Parus 27
Kosmos-3M | Parus 27

Agency: N/A

Status: Launch Successful

Launch date: June 4, 1981, 3:41 p.m. UTC

Rocket: Kosmos-3M

Launch pad: 132/2

Location: Plesetsk Cosmodrome, Russian Federation

...

Latest news about this satellite

There are no fresh news available about this satellite. Check back as we update our databases every day.


Newsletter sign-up

Weekly statistics, charts and insights to help you stay on top of the space industry.